Weather Roundup
Issued by NWS

Home | Current Version | Previous Version | Graphics & Text | Print | Product List | Glossary Off
Versions: 1 2 3 4 5 6 7 8 9 10 11 12 13 14 15 16 17 18 19 20 21 22 23 24 25 26 27 28 29 30 31 32 33 34 35 36 37 38 39 40 41 42 43 44 45 46 47 48 49 50

000
NZUS93 KARX 242259
HRRWXR

CURRENT HOURLY OBSERVATIONS ACROSS
MUCH OF THE UPPER MISSISSIPPI VALLEY
NATIONAL WEATHER SERVICE LA CROSSE WI
600 PM CDT FRI APR 24 2015


...SOUTHEAST MINNESOTA...


CITY           SKY/WX    TMP DP  RH WIND       PRES   REMARKS
ROCHESTER      LGT RAIN  42  39  89 SE9       29.83R
ROCHESTER/MAYO CLOUDY    42  40  94 E13       29.83R
WINONA         NOT AVBL
AUSTIN         LGT RAIN  43  39  87 SE14G25   29.78S
ALBERT LEA     CLOUDY    45  43  93 SE20G26   29.75F
DODGE CENTER   RAIN      43  41  93 SE17      29.79F
PRESTON        CLOUDY    42  39  87 SE16G22   29.80F
OWATONNA       HVY RAIN  43  39  87 E18       29.78S
FARIBAULT      LGT RAIN  45  41  87 E14       29.79F
$$

...ELSEWHERE IN MINNESOTA...


CITY           SKY/WX    TMP DP  RH WIND       PRES   REMARKS
MINNEAPOLIS    LGT RAIN  46  41  82 SE14G22   29.80F
INTNL FALLS    CLOUDY    41  24  51 E8        29.90S
DULUTH         CLOUDY    38  26  62 E15       29.90F WCI  29
RED WING       LGT RAIN  45  39  81 SE14      29.83S
REDWOOD FALLS  LGT RAIN  47  43  86 SE13      29.71R
MANKATO        CLOUDY    45  37  76 SE17      29.76S
WORTHINGTON    PTSUNNY   54  45  71 SE20      29.63S
FAIRMONT       CLOUDY    48  12  23 SE21G28   29.70F
$$

...SOUTHWEST WISCONSIN...


CITY           SKY/WX    TMP DP  RH WIND       PRES   REMARKS
LA CROSSE      LGT RAIN  47  42  83 E6        29.86F
PRAIRIE DU CHI DRIZZLE   45  41  87 E7        29.88F
BOSCOBEL       LGT RAIN  44  41  89 VRB6      29.90F
LONE ROCK      NOT AVBL
PLATTEVILLE    CLOUDY    45  39  81 E12       29.89F
FORT MC COY    RAIN      45  38  78 SE6       29.90S
VIROQUA        CLOUDY    43  43 100 SE12      29.88R
WIS DELLS      RAIN      42  38  84 SE7       29.92S
$$

...ELSEWHERE IN WISCONSIN...


CITY           SKY/WX    TMP DP  RH WIND       PRES   REMARKS
MILWAUKEE      RAIN      39  29  67 E9        29.99S WCI  33
MADISON        LGT RAIN  43  37  79 SE9       29.93F
GREEN BAY      CLOUDY    48  21  34 E12G21    29.98S
EAU CLAIRE     CLOUDY    53  27  36 SE12      29.85S
BLACK RVR FLS  LGT RAIN  49  29  45 SE6       29.89R
MEDFORD        CLOUDY    52  22  30 SE8       29.87S
WAUSAU         CLOUDY    53  20  27 E13       29.88S
WIS RAPIDS     CLOUDY    54  16  22 S9        29.91R
MARSHFIELD     CLOUDY    53  21  28 S14       29.88R
RICE LAKE      CLOUDY    52  23  32 E8        29.86F
$$

...NORTHEAST IOWA...


CITY           SKY/WX    TMP DP  RH WIND       PRES   REMARKS
DECORAH        MIX PCPN  43  41  93 SE10G22   29.82F
MASON CITY     CLOUDY    47  43  86 SE21G29   29.75S
CHARLES CITY   PTSUNNY   45  43  93 SE15G29   29.77F
OELWEIN        CLOUDY    45  41  87 SE21      29.81F
$$

...ELSEWHERE IN IOWA...


CITY           SKY/WX    TMP DP  RH WIND       PRES   REMARKS
DES MOINES     CLOUDY    56  49  77 E9G18     29.69F
IOWA CITY      CLOUDY    47  44  90 NE10      29.80F
FORT DODGE     CLOUDY    54  46  76 SE17      29.69F
$$

...NORTHERN ILLINOIS...


CITY           SKY/WX    TMP DP  RH WIND       PRES   REMARKS
CHICAGO-OHARE  CLOUDY    49  26  41 NE12      29.93S
CHICAGO-MIDWAY CLOUDY    52  21  29 E14       29.93F
MOLINE         LGT RAIN  50  42  74 E12       29.81F
ROCKFORD       LGT RAIN  46  37  71 NE12      29.96R
PEORIA         CLOUDY    62  30  29 S14G23    29.82F
$$

NOTE: "FAIR" INDICATES FEW OR NO CLOUDS BELOW 12,000 FEET WITH NO
SIGNIFICANT WEATHER AND/OR OBSTRUCTIONS TO VISIBILITY. WIND
SPEEDS ARE IN MILES-PER-HOUR.



USA.gov is the U.S. government's official web portal to all federal, state and local government web resources and services.